Location: Fort Worth, Tx
(32.7431°N, 97.3695°W)
Time: 03:46:55
(UTC-04:00)

Vanguard 3 - Pass Details

Date: 25 February 2024
Orbit: 510 x 3234 km, 33.3° (Epoch: 24 April)

Event Time Altitude Azimuth Distance (km) Brightness Sun altitude
Rises 20:11:33 0° 223° (SW) 6,176 12.4 -10.9°
Reaches altitude 10° 20:15:21 10° 219° (SW) 5,447 12.0 -11.7°
Maximum altitude 20:32:25 55° 147° (SSE) 3,659 10.2 -15.3°
Enters shadow 20:46:25 21° 82° (E) 5,073 10.5 -18.2°
